Left ArrowRight Arrow

33.98154, -81.23621

Hourly Observations for June 13, 2024

Temp ( °F °C ) Dew Point ( °F °C ) Humidity (%) Winds ( mph kmh ) Pressure ( in mb ) Visibility ( mi km ) Precip ( " mm )
12:56 am 00:56 Cloudy 74 23.3 66 18.9 76 76 E 6 9 29.97 1015 10 16 0.00 0.00
1:56 am 01:56 Cloudy 73 22.8 66 18.9 79 79 E 5 7 29.96 1015 10 16 0.00 0.00
2:56 am 02:56 Cloudy 72 22.2 67 19.4 84 84 E 5 7 29.96 1014 10 16 0.00 0.00
3:56 am 03:56 Cloudy 72 22.2 66 18.9 82 82 ENE 5 7 29.95 1014 10 16 0.00 0.00
4:56 am 04:56 Cloudy 72 22.2 67 19.4 84 84 NE 3 6 29.95 1014 10 16 0.00 0.00
5:56 am 05:56 Cloudy 72 22.2 67 19.4 84 84 Calm 29.96 1015 10 16 0.00 0.00
6:56 am 06:56 Cloudy 73 22.8 68 20 84 84 Calm 29.98 1015 10 16 0.00 0.00
7:56 am 07:56 Mostly Cloudy 73 22.8 68 20 84 84 NNE 6 9 30.00 1016 10 16 0.00 0.00
8:56 am 08:56 Partly Cloudy 78 25.6 68 20 71 71 ENE 7 11 30.01 1016 10 16 0.00 0.00
9:56 am 09:56 Partly Cloudy 81 27.2 67 19.4 62 62 E 8 13 30.01 1016 10 16 0.00 0.00
10:56 am 10:56 Partly Cloudy 83 28.3 66 18.9 57 57 E 8 13 30.01 1016 10 16 0.00 0.00
11:56 am 11:56 Mostly Sunny 87 30.6 61 16.1 42 42 ESE 10 17 30.00 1016 10 16 0.00 0.00
12:56 pm 12:56 Partly Cloudy 89 31.7 59 15 36 36 E 9 15 29.98 1015 10 16 0.00 0.00
1:56 pm 13:56 Partly Cloudy 90 32.2 59 15 35 35 ENE 15 24 29.97 1015 10 16 0.00 0.00
2:56 pm 14:56 Partly Cloudy 90 32.2 59 15 35 35 E 15 24 29.96 1015 10 16 0.00 0.00
3:56 pm 15:56 Partly Cloudy 89 31.7 59 15 36 36 ENE 8 13 29.94 1014 10 16 0.00 0.00
4:56 pm 16:56 Partly Cloudy 90 32.2 60 15.6 37 37 E 9 15 29.93 1014 10 16 0.00 0.00
5:56 pm 17:56 Partly Cloudy 89 31.7 59 15 36 36 E 8 13 29.93 1014 10 16 0.00 0.00
6:56 pm 18:56 Partly Cloudy 87 30.6 59 15 39 39 ESE 7 11 29.94 1014 10 16 0.00 0.00
7:56 pm 19:56 Mostly Sunny 86 30 62 16.7 45 45 SE 7 11 29.94 1014 10 16 0.00 0.00
8:56 pm 20:56 Partly Cloudy 82 27.8 63 17.2 53 53 E 6 9 29.94 1014 10 16 0.00 0.00
9:56 pm 21:56 Clear 79 26.1 63 17.2 58 58 ESE 7 11 29.95 1014 10 16 0.00 0.00
10:56 pm 22:56 Clear 78 25.6 63 17.2 60 60 VRB 6 9 29.95 1014 10 16 0.00 0.00
11:56 pm 23:56 Clear 76 24.4 62 16.7 62 62 E 3 6 29.95 1014 10 16 0.00 0.00

Powered by Vaisala Xweather